7 * 24
多渠道服务支持
JILIN-1 05 是吉林一号卫星星座的第五颗卫星,由中国长光卫星技术有限公司研制,主要用于高分辨率遥感成像。该卫星具备高清晰度、宽覆盖和快速响应能力,广泛应用于农业监测、城市规划、灾害评估等领域。JILIN-1 05 的发射进一步增强了吉林一号星座的组网能力,提升了遥感数据获取的时效性和精度,为商业航天和地球观测提供了重要支持。
数据来源 | 国际轨道数据 |
星历时间: | 2025-10-18T08:02:28+0800 6小时前 查看轨道信息 |
半长轴: | 6853.82km |
偏心率: | 0.0005849 |
轨道倾角: | 97.483° |
近地点辐角 | 22.662° |
升交点赤经 | 29.700° |
平近点角 | 337.488° |
近地点: | 471.676km |
远地点: | 479.694km |
周期: | 94.115分钟 |
每日圈数: | 15.300434 |